Time,TemperatureF,DewpointF,PressureIn,WindDirection,WindDirectionDegrees,WindSpeedMPH,WindSpeedGustMPH,Humidity,HourlyPrecipIn,Conditions,Clouds,dailyrainin,SoftwareType,DateUTC
2013-04-14 00:02:00,35.1,31.9,29.44,NNE,22,0.0,0.0,88,0.00,,---,0.00,VWS V14.01,2013-04-14 04:02:00,
2013-04-14 00:03:00,35.1,31.9,29.44,West,270,0.0,0.0,88,0.00,,---,0.00,VWS V14.01,2013-04-14 04:03:00,
2013-04-14 00:08:00,34.9,31.7,29.44,SSW,202,0.0,0.0,88,0.00,,---,0.00,VWS V14.01,2013-04-14 04:08:00,
2013-04-14 00:12:00,34.7,31.2,29.44,SW,225,0.0,0.0,87,0.00,,---,0.00,VWS V14.01,2013-04-14 04:12:00,
2013-04-14 00:17:00,34.7,31.5,29.44,SW,225,0.0,0.0,88,0.00,,---,0.00,VWS V14.01,2013-04-14 04:17:00,
2013-04-14 00:21:00,34.7,31.5,29.44,SW,225,0.0,0.0,88,0.00,,---,0.00,VWS V14.01,2013-04-14 04:21:00,
2013-04-14 00:27:00,35.1,32.2,29.44,ENE,68,0.0,0.0,89,0.00,,---,0.00,VWS V14.01,2013-04-14 04:27:00,
2013-04-14 00:32:00,35.2,32.6,29.44,ENE,68,0.0,0.0,90,0.00,,---,0.00,VWS V14.01,2013-04-14 04:32:00,
2013-04-14 00:37:00,35.2,32.6,29.44,East,90,0.0,0.0,90,0.00,,---,0.00,VWS V14.01,2013-04-14 04:37:00,
2013-04-14 00:42:00,35.1,32.2,29.44,East,90,0.0,0.0,89,0.00,,---,0.00,VWS V14.01,2013-04-14 04:42:00,
2013-04-14 00:47:00,35.1,32.2,29.44,SSW,202,0.0,0.0,89,0.00,,---,0.00,VWS V14.01,2013-04-14 04:47:00,
2013-04-14 00:52:00,34.9,32.0,29.44,SSW,202,0.0,0.0,89,0.00,,---,0.00,VWS V14.01,2013-04-14 04:52:00,
2013-04-14 00:57:00,34.9,32.0,29.44,SSW,202,0.0,0.0,89,0.00,,---,0.00,VWS V14.01,2013-04-14 04:57:00,
2013-04-14 01:02:00,34.7,31.8,29.44,SSW,202,0.0,0.0,89,0.00,,---,0.00,VWS V14.01,2013-04-14 05:02:00,
2013-04-14 01:08:00,34.9,32.2,29.44,ENE,68,0.0,0.0,90,0.00,,---,0.00,VWS V14.01,2013-04-14 05:08:00,
2013-04-14 01:13:00,34.9,32.2,29.44,ENE,68,0.0,0.0,90,0.00,,---,0.00,VWS V14.01,2013-04-14 05:13:00,
2013-04-14 01:18:00,34.7,32.1,29.44,ENE,68,0.0,0.0,90,0.00,,---,0.00,VWS V14.01,2013-04-14 05:18:00,
2013-04-14 01:23:00,34.7,32.1,29.44,ESE,112,0.0,0.0,90,0.00,,---,0.00,VWS V14.01,2013-04-14 05:23:00,
2013-04-14 01:28:00,34.5,31.6,29.44,ESE,112,0.0,0.0,89,0.00,,---,0.00,VWS V14.01,2013-04-14 05:28:00,
2013-04-14 01:33:00,34.3,31.4,29.44,ESE,112,0.0,0.0,89,0.00,,---,0.00,VWS V14.01,2013-04-14 05:33:00,
2013-04-14 01:38:00,34.3,31.4,29.44,ESE,112,0.0,0.0,89,0.00,,---,0.00,VWS V14.01,2013-04-14 05:38:00,
2013-04-14 01:43:00,34.3,31.7,29.44,ESE,112,0.0,0.0,90,0.00,,---,0.00,VWS V14.01,2013-04-14 05:43:00,
2013-04-14 01:48:00,34.5,32.2,29.44,SSE,158,0.0,0.0,91,0.00,,---,0.00,VWS V14.01,2013-04-14 05:48:00,
2013-04-14 01:53:00,34.5,32.2,29.44,SSE,158,0.0,0.0,91,0.00,,---,0.00,VWS V14.01,2013-04-14 05:53:00,
2013-04-14 01:58:00,34.0,31.4,29.44,SSE,158,0.0,0.0,90,0.00,,---,0.00,VWS V14.01,2013-04-14 05:58:00,
2013-04-14 02:03:00,34.0,31.4,29.44,SSE,158,0.0,0.0,90,0.00,,---,0.00,VWS V14.01,2013-04-14 06:03:00,
2013-04-14 02:08:00,34.2,31.5,29.44,SSE,158,0.0,0.0,90,0.00,,---,0.00,VWS V14.01,2013-04-14 06:08:00,
2013-04-14 02:13:00,34.0,31.4,29.44,SSE,158,0.0,0.0,90,0.00,,---,0.00,VWS V14.01,2013-04-14 06:13:00,
2013-04-14 02:18:00,34.0,31.4,29.44,SSE,158,0.0,0.0,90,0.00,,---,0.00,VWS V14.01,2013-04-14 06:18:00,
2013-04-14 02:23:00,33.8,31.2,29.44,SSE,158,0.0,0.0,90,0.00,,---,0.00,VWS V14.01,2013-04-14 06:23:00,
2013-04-14 02:28:00,33.8,31.2,29.44,SSE,158,0.0,0.0,90,0.00,,---,0.00,VWS V14.01,2013-04-14 06:28:00,
2013-04-14 02:34:00,34.0,31.6,29.44,SSE,158,0.0,0.0,91,0.00,,---,0.00,VWS V14.01,2013-04-14 06:34:00,
2013-04-14 02:39:00,33.6,31.0,29.44,SSE,158,0.0,0.0,90,0.00,,---,0.00,VWS V14.01,2013-04-14 06:39:00,
2013-04-14 02:44:00,33.3,30.6,29.44,SSE,158,0.0,0.0,90,0.00,,---,0.00,VWS V14.01,2013-04-14 06:44:00,
2013-04-14 02:49:00,33.3,30.6,29.44,SSE,158,0.0,0.0,90,0.00,,---,0.00,VWS V14.01,2013-04-14 06:49:00,
2013-04-14 02:54:00,33.3,30.9,29.44,SSE,158,0.0,0.0,91,0.00,,---,0.00,VWS V14.01,2013-04-14 06:54:00,
2013-04-14 02:59:00,33.1,30.7,29.44,SSE,158,0.0,0.0,91,0.00,,---,0.00,VWS V14.01,2013-04-14 06:59:00,
2013-04-14 03:05:00,32.5,29.9,29.44,SSE,158,0.0,0.0,90,0.00,,---,0.00,VWS V14.01,2013-04-14 07:05:00,
2013-04-14 03:10:00,32.7,30.1,29.44,SSE,158,0.0,0.0,90,0.00,,---,0.00,VWS V14.01,2013-04-14 07:10:00,
2013-04-14 03:15:00,32.4,29.8,29.44,SSE,158,0.0,0.0,90,0.00,,---,0.00,VWS V14.01,2013-04-14 07:15:00,
2013-04-14 03:20:00,32.2,29.6,29.44,SSE,158,0.0,0.0,90,0.00,,---,0.00,VWS V14.01,2013-04-14 07:20:00,
2013-04-14 03:26:00,31.8,29.2,29.44,SSE,158,0.0,0.0,90,0.00,,---,0.00,VWS V14.01,2013-04-14 07:26:00,
2013-04-14 03:31:00,31.6,29.0,29.44,SSE,158,0.0,0.0,90,0.00,,---,0.00,VWS V14.01,2013-04-14 07:31:00,
2013-04-14 03:37:00,31.3,28.7,29.44,SSE,158,0.0,0.0,90,0.00,,---,0.00,VWS V14.01,2013-04-14 07:37:00,
2013-04-14 03:43:00,31.1,28.5,29.44,SSE,158,0.0,0.0,90,0.00,,---,0.00,VWS V14.01,2013-04-14 07:43:00,
2013-04-14 03:48:00,31.1,28.5,29.44,SSE,158,0.0,0.0,90,0.00,,---,0.00,VWS V14.01,2013-04-14 07:48:00,
2013-04-14 03:53:00,31.1,28.5,29.44,SSE,158,0.0,0.0,90,0.00,,---,0.00,VWS V14.01,2013-04-14 07:53:00,
2013-04-14 03:58:00,31.1,28.5,29.44,SSE,158,0.0,0.0,90,0.00,,---,0.00,VWS V14.01,2013-04-14 07:58:00,
2013-04-14 04:03:00,30.9,28.3,29.44,SSE,158,0.0,0.0,90,0.00,,---,0.00,VWS V14.01,2013-04-14 08:03:00,
2013-04-14 04:09:00,31.1,28.5,29.44,SSW,202,0.0,0.0,90,0.00,,---,0.00,VWS V14.01,2013-04-14 08:09:00,
2013-04-14 04:14:00,31.3,29.0,29.44,SSW,202,0.0,0.0,91,0.00,,---,0.00,VWS V14.01,2013-04-14 08:14:00,
2013-04-14 04:19:00,31.5,29.1,29.44,SSW,202,0.0,0.0,91,0.00,,---,0.00,VWS V14.01,2013-04-14 08:19:00,
2013-04-14 04:25:00,31.5,29.4,29.44,SSW,202,0.0,0.0,92,0.00,,---,0.00,VWS V14.01,2013-04-14 08:25:00,
2013-04-14 04:30:00,31.6,29.6,29.44,SSW,202,0.0,0.0,92,0.00,,---,0.00,VWS V14.01,2013-04-14 08:30:00,
2013-04-14 04:36:00,31.8,29.8,29.44,SSW,202,0.0,0.0,92,0.00,,---,0.00,VWS V14.01,2013-04-14 08:36:00,
2013-04-14 04:41:00,31.8,29.8,29.44,SSW,202,0.0,0.0,92,0.00,,---,0.00,VWS V14.01,2013-04-14 08:41:00,
2013-04-14 04:46:00,31.8,30.0,29.44,SSW,202,0.0,0.0,93,0.00,,---,0.00,VWS V14.01,2013-04-14 08:46:00,
2013-04-14 04:52:00,32.0,30.2,29.44,SSW,202,0.0,0.0,93,0.00,,---,0.00,VWS V14.01,2013-04-14 08:52:00,
2013-04-14 04:57:00,32.2,30.4,29.44,SSW,202,0.0,0.0,93,0.00,,---,0.00,VWS V14.01,2013-04-14 08:57:00,
2013-04-14 05:02:00,32.2,30.4,29.44,SSE,158,0.0,0.0,93,0.00,,---,0.00,VWS V14.01,2013-04-14 09:02:00,
2013-04-14 05:08:00,32.2,30.4,29.44,ENE,68,0.0,0.0,93,0.00,,---,0.00,VWS V14.01,2013-04-14 09:08:00,
2013-04-14 05:14:00,32.2,30.4,29.47,NE,45,0.0,0.0,93,0.00,,---,0.00,VWS V14.01,2013-04-14 09:14:00,
2013-04-14 05:19:00,32.2,30.4,29.47,NE,45,0.0,0.0,93,0.00,,---,0.00,VWS V14.01,2013-04-14 09:19:00,
2013-04-14 05:25:00,32.2,30.4,29.47,NE,45,0.0,0.0,93,0.00,,---,0.00,VWS V14.01,2013-04-14 09:25:00,
2013-04-14 05:30:00,32.2,30.4,29.47,South,180,0.0,0.0,93,0.00,,---,0.00,VWS V14.01,2013-04-14 09:30:00,
2013-04-14 05:35:00,32.4,30.6,29.47,South,180,0.0,0.0,93,0.00,,---,0.00,VWS V14.01,2013-04-14 09:35:00,
2013-04-14 05:41:00,32.4,30.8,29.47,South,180,0.0,0.0,94,0.00,,---,0.00,VWS V14.01,2013-04-14 09:41:00,
2013-04-14 05:46:00,32.4,30.6,29.47,SSE,158,0.0,0.0,93,0.00,,---,0.00,VWS V14.01,2013-04-14 09:46:00,
2013-04-14 05:52:00,32.4,30.6,29.47,SSE,158,0.0,0.0,93,0.00,,---,0.00,VWS V14.01,2013-04-14 09:52:00,
2013-04-14 05:57:00,32.4,30.8,29.47,SE,135,0.0,0.0,94,0.00,,---,0.00,VWS V14.01,2013-04-14 09:57:00,
2013-04-14 06:03:00,32.4,30.6,29.44,WSW,248,0.0,0.0,93,0.00,,---,0.00,VWS V14.01,2013-04-14 10:03:00,
2013-04-14 06:08:00,32.4,30.6,29.44,WSW,248,0.0,0.0,93,0.00,,---,0.00,VWS V14.01,2013-04-14 10:08:00,
2013-04-14 06:14:00,32.5,30.7,29.47,WSW,248,0.0,0.0,93,0.00,,---,0.00,VWS V14.01,2013-04-14 10:14:00,
2013-04-14 06:19:00,32.5,30.7,29.47,WSW,248,0.0,0.0,93,0.00,,---,0.00,VWS V14.01,2013-04-14 10:19:00,
2013-04-14 06:24:00,32.7,30.9,29.47,WSW,248,0.0,0.0,93,0.00,,---,0.00,VWS V14.01,2013-04-14 10:24:00,
2013-04-14 06:29:00,32.7,31.2,29.47,WSW,248,0.0,0.0,94,0.00,,---,0.00,VWS V14.01,2013-04-14 10:29:00,
2013-04-14 06:35:00,32.9,31.4,29.47,ENE,68,0.0,0.0,94,0.00,,---,0.00,VWS V14.01,2013-04-14 10:35:00,
2013-04-14 06:40:00,33.1,31.5,29.47,ENE,68,0.0,0.0,94,0.00,,---,0.00,VWS V14.01,2013-04-14 10:40:00,
2013-04-14 06:45:00,33.1,31.5,29.47,WSW,248,0.0,0.0,94,0.00,,---,0.00,VWS V14.01,2013-04-14 10:45:00,
2013-04-14 06:50:00,33.3,31.7,29.47,WSW,248,0.0,0.0,94,0.00,,---,0.00,VWS V14.01,2013-04-14 10:50:00,
2013-04-14 06:56:00,33.3,31.7,29.47,WSW,248,0.0,0.0,94,0.00,,---,0.00,VWS V14.01,2013-04-14 10:56:00,
2013-04-14 07:01:00,33.4,32.2,29.47,WSW,248,0.0,0.0,95,0.00,,---,0.00,VWS V14.01,2013-04-14 11:01:00,
2013-04-14 07:07:00,33.6,32.3,29.47,WSW,248,0.0,0.0,95,0.00,,---,0.00,VWS V14.01,2013-04-14 11:07:00,
2013-04-14 07:12:00,33.8,32.3,29.50,WSW,248,0.0,0.0,94,0.00,,---,0.00,VWS V14.01,2013-04-14 11:12:00,
2013-04-14 07:17:00,33.8,32.3,29.50,WSW,248,0.0,0.0,94,0.00,,---,0.00,VWS V14.01,2013-04-14 11:17:00,
2013-04-14 07:22:00,34.0,32.7,29.50,WSW,248,0.0,0.0,95,0.00,,---,0.00,VWS V14.01,2013-04-14 11:22:00,
2013-04-14 07:27:00,34.3,33.1,29.50,WSW,248,0.0,0.0,95,0.00,,---,0.00,VWS V14.01,2013-04-14 11:27:00,
2013-04-14 07:32:00,34.5,33.2,29.50,WSW,248,0.0,0.0,95,0.00,,---,0.00,VWS V14.01,2013-04-14 11:32:00,
2013-04-14 07:38:00,34.7,33.4,29.50,WSW,248,0.0,0.0,95,0.00,,---,0.00,VWS V14.01,2013-04-14 11:38:00,
2013-04-14 07:43:00,34.9,33.3,29.50,WSW,248,0.0,0.0,94,0.00,,---,0.00,VWS V14.01,2013-04-14 11:43:00,
2013-04-14 07:48:00,35.2,33.7,29.50,WSW,248,0.0,0.0,94,0.00,,---,0.00,VWS V14.01,2013-04-14 11:48:00,
2013-04-14 07:54:00,35.6,34.0,29.50,East,90,0.0,0.0,94,0.00,,---,0.00,VWS V14.01,2013-04-14 11:54:00,
2013-04-14 07:59:00,36.1,34.6,29.50,East,90,0.0,0.0,94,0.00,,---,0.00,VWS V14.01,2013-04-14 11:59:00,
2013-04-14 08:05:00,36.7,35.1,29.50,East,90,0.0,0.0,94,0.00,,---,0.00,VWS V14.01,2013-04-14 12:05:00,
2013-04-14 08:10:00,37.0,35.5,29.50,East,90,0.0,0.0,94,0.00,,---,0.00,VWS V14.01,2013-04-14 12:10:00,
2013-04-14 08:15:00,37.4,35.6,29.50,East,90,0.0,0.0,93,0.00,,---,0.00,VWS V14.01,2013-04-14 12:15:00,
2013-04-14 08:20:00,37.9,36.1,29.50,East,90,0.0,0.0,93,0.00,,---,0.00,VWS V14.01,2013-04-14 12:20:00,
2013-04-14 08:25:00,38.5,36.4,29.50,East,90,0.0,0.0,92,0.00,,---,0.00,VWS V14.01,2013-04-14 12:25:00,
2013-04-14 08:30:00,38.8,36.7,29.50,East,90,0.0,0.0,92,0.00,,---,0.00,VWS V14.01,2013-04-14 12:30:00,
2013-04-14 08:35:00,39.4,37.0,29.50,East,90,0.0,0.0,91,0.00,,---,0.00,VWS V14.01,2013-04-14 12:35:00,
2013-04-14 08:40:00,39.9,37.2,29.50,East,90,0.0,0.0,90,0.00,,---,0.00,VWS V14.01,2013-04-14 12:40:00,
2013-04-14 08:45:00,40.3,37.6,29.50,East,90,0.0,0.0,90,0.00,,---,0.00,VWS V14.01,2013-04-14 12:45:00,
2013-04-14 08:50:00,40.6,37.4,29.50,East,90,0.0,0.0,88,0.00,,---,0.00,VWS V14.01,2013-04-14 12:50:00,
2013-04-14 08:56:00,41.2,37.9,29.50,NW,315,0.0,0.0,88,0.00,,---,0.00,VWS V14.01,2013-04-14 12:56:00,
2013-04-14 09:01:00,41.7,38.1,29.50,NW,315,0.0,0.0,87,0.00,,---,0.00,VWS V14.01,2013-04-14 13:01:00,
2013-04-14 09:06:00,42.1,38.5,29.50,NW,315,0.0,0.0,87,0.00,,---,0.00,VWS V14.01,2013-04-14 13:06:00,
2013-04-14 09:11:00,42.6,38.7,29.50,NW,315,0.0,0.0,86,0.00,,---,0.00,VWS V14.01,2013-04-14 13:11:00,
2013-04-14 09:16:00,43.0,38.8,29.50,NNE,22,0.0,0.0,85,0.00,,---,0.00,VWS V14.01,2013-04-14 13:16:00,
2013-04-14 09:22:00,43.7,39.2,29.50,NNE,22,0.0,0.0,84,0.00,,---,0.00,VWS V14.01,2013-04-14 13:22:00,
2013-04-14 09:28:00,44.6,39.8,29.50,ENE,68,0.0,0.0,83,0.00,,---,0.00,VWS V14.01,2013-04-14 13:28:00,
2013-04-14 09:34:00,45.1,39.7,29.50,ENE,68,0.0,0.0,81,0.00,,---,0.00,VWS V14.01,2013-04-14 13:34:00,
2013-04-14 09:40:00,45.0,38.2,29.50,East,90,1.6,1.6,77,0.00,,---,0.00,VWS V14.01,2013-04-14 13:40:00,
2013-04-14 09:46:00,46.2,39.8,29.50,NE,45,1.6,1.6,78,0.00,,---,0.00,VWS V14.01,2013-04-14 13:46:00,
2013-04-14 09:51:00,46.0,38.9,29.50,NNE,22,0.0,1.1,76,0.00,,---,0.00,VWS V14.01,2013-04-14 13:51:00,
2013-04-14 09:56:00,46.2,39.1,29.50,East,90,1.1,2.0,76,0.00,,---,0.00,VWS V14.01,2013-04-14 13:56:00,
2013-04-14 10:01:00,46.0,38.2,29.50,NNW,338,1.3,2.9,74,0.00,,---,0.00,VWS V14.01,2013-04-14 14:01:00,
2013-04-14 10:06:00,46.2,38.1,29.50,NNE,22,1.1,1.1,73,0.00,,---,0.00,VWS V14.01,2013-04-14 14:06:00,
2013-04-14 10:12:00,46.6,38.4,29.50,East,90,1.3,1.3,73,0.00,,---,0.00,VWS V14.01,2013-04-14 14:12:00,
2013-04-14 10:18:00,47.3,39.1,29.50,NE,45,0.9,1.1,73,0.00,,---,0.00,VWS V14.01,2013-04-14 14:18:00,
2013-04-14 10:23:00,47.8,38.9,29.50,SSW,202,1.3,2.5,71,0.00,,---,0.00,VWS V14.01,2013-04-14 14:23:00,
2013-04-14 10:29:00,48.7,39.0,29.50,NNE,22,2.5,2.7,69,0.00,,---,0.00,VWS V14.01,2013-04-14 14:29:00,
2013-04-14 10:34:00,48.9,38.1,29.50,NW,315,2.9,4.3,66,0.00,,---,0.00,VWS V14.01,2013-04-14 14:34:00,
2013-04-14 10:39:00,49.6,37.6,29.50,East,90,1.1,2.7,63,0.00,,---,0.00,VWS V14.01,2013-04-14 14:39:00,
2013-04-14 10:44:00,50.2,38.1,29.47,ENE,68,2.0,2.0,63,0.00,,---,0.00,VWS V14.01,2013-04-14 14:44:00,
2013-04-14 10:50:00,50.4,37.0,29.47,SSW,202,1.6,1.6,60,0.00,,---,0.00,VWS V14.01,2013-04-14 14:50:00,
2013-04-14 10:55:00,49.8,35.7,29.47,ENE,68,3.4,3.4,58,0.00,,---,0.00,VWS V14.01,2013-04-14 14:55:00,
2013-04-14 11:00:00,49.5,36.2,29.47,NNW,338,0.0,1.6,60,0.00,,---,0.00,VWS V14.01,2013-04-14 15:00:00,
2013-04-14 11:05:00,49.1,35.4,29.47,WNW,292,2.5,2.5,59,0.00,,---,0.00,VWS V14.01,2013-04-14 15:05:00,
2013-04-14 11:10:00,48.0,34.4,29.47,East,90,1.6,2.2,59,0.00,,---,0.00,VWS V14.01,2013-04-14 15:10:00,
2013-04-14 11:15:00,47.8,35.1,29.50,NNE,22,0.0,0.0,61,0.00,,---,0.00,VWS V14.01,2013-04-14 15:15:00,
2013-04-14 11:20:00,48.4,36.4,29.50,NNE,22,0.0,0.0,63,0.00,,---,0.00,VWS V14.01,2013-04-14 15:20:00,
2013-04-14 11:26:00,48.6,37.0,29.50,WNW,292,1.3,2.0,64,0.00,,---,0.00,VWS V14.01,2013-04-14 15:26:00,
2013-04-14 11:31:00,49.1,37.5,29.50,WNW,292,0.0,0.0,64,0.00,,---,0.00,VWS V14.01,2013-04-14 15:31:00,
2013-04-14 11:36:00,49.6,38.4,29.50,WNW,292,1.1,2.0,65,0.00,,---,0.00,VWS V14.01,2013-04-14 15:36:00,
2013-04-14 11:41:00,49.6,37.6,29.50,WNW,292,2.7,2.7,63,0.00,,---,0.00,VWS V14.01,2013-04-14 15:41:00,
2013-04-14 11:46:00,48.6,35.7,29.50,West,270,1.6,1.6,61,0.00,,---,0.00,VWS V14.01,2013-04-14 15:46:00,
2013-04-14 11:51:00,47.8,35.5,29.50,WNW,292,1.3,2.2,62,0.00,,---,0.00,VWS V14.01,2013-04-14 15:51:00,
2013-04-14 11:57:00,46.9,35.0,29.50,WNW,292,0.9,1.3,63,0.00,,---,0.00,VWS V14.01,2013-04-14 15:57:00,
2013-04-14 12:02:00,46.0,35.0,29.50,West,270,2.5,3.4,65,0.00,,---,0.00,VWS V14.01,2013-04-14 16:02:00,
2013-04-14 12:07:00,45.3,35.0,29.50,West,270,2.5,2.5,67,0.00,,---,0.00,VWS V14.01,2013-04-14 16:07:00,
2013-04-14 12:12:00,44.6,34.7,29.50,West,270,2.0,2.5,68,0.00,,---,0.00,VWS V14.01,2013-04-14 16:12:00,
2013-04-14 12:18:00,44.4,34.9,29.50,West,270,0.0,0.0,69,0.00,,---,0.00,VWS V14.01,2013-04-14 16:18:00,
2013-04-14 12:23:00,44.4,34.9,29.50,WSW,248,1.3,2.5,69,0.00,,---,0.00,VWS V14.01,2013-04-14 16:23:00,
2013-04-14 12:29:00,44.4,34.9,29.50,WSW,248,1.3,1.3,69,0.00,,---,0.00,VWS V14.01,2013-04-14 16:29:00,
2013-04-14 12:34:00,44.4,34.9,29.50,WSW,248,1.1,1.6,69,0.00,,---,0.00,VWS V14.01,2013-04-14 16:34:00,
2013-04-14 12:39:00,46.9,38.0,29.50,SSW,202,1.3,1.6,71,0.00,,---,0.00,VWS V14.01,2013-04-14 16:39:00,
2013-04-14 12:44:00,47.5,38.2,29.50,WNW,292,2.0,2.2,70,0.00,,---,0.00,VWS V14.01,2013-04-14 16:44:00,
2013-04-14 12:49:00,47.7,38.0,29.50,East,90,0.9,0.9,69,0.00,,---,0.00,VWS V14.01,2013-04-14 16:49:00,
2013-04-14 12:54:00,48.4,37.9,29.50,NNE,22,1.3,2.7,67,0.00,,---,0.00,VWS V14.01,2013-04-14 16:54:00,
2013-04-14 13:00:00,49.5,38.6,29.47,North,0,1.3,1.6,66,0.00,,---,0.00,VWS V14.01,2013-04-14 17:00:00,
2013-04-14 13:05:00,51.1,38.9,29.47,West,270,1.1,2.0,63,0.00,,---,0.00,VWS V14.01,2013-04-14 17:05:00,
2013-04-14 13:11:00,51.4,38.0,29.47,ENE,68,2.0,4.3,60,0.00,,---,0.00,VWS V14.01,2013-04-14 17:11:00,
2013-04-14 13:16:00,50.7,35.6,29.50,NW,315,3.4,3.4,56,0.00,,---,0.00,VWS V14.01,2013-04-14 17:16:00,
2013-04-14 13:21:00,50.5,35.4,29.50,WNW,292,1.3,1.6,56,0.00,,---,0.00,VWS V14.01,2013-04-14 17:21:00,
2013-04-14 13:26:00,49.5,33.5,29.50,WNW,292,7.2,7.2,54,0.00,,---,0.00,VWS V14.01,2013-04-14 17:26:00,
2013-04-14 13:32:00,47.7,30.0,29.50,NNE,22,3.6,4.3,50,0.00,,---,0.00,VWS V14.01,2013-04-14 17:32:00,
2013-04-14 13:37:00,47.3,30.6,29.50,WSW,248,7.2,7.2,52,0.00,,---,0.00,VWS V14.01,2013-04-14 17:37:00,
2013-04-14 13:43:00,47.7,30.9,29.50,SE,135,1.3,4.3,52,0.00,,---,0.00,VWS V14.01,2013-04-14 17:43:00,
2013-04-14 13:47:00,48.0,31.2,29.50,ESE,112,3.4,3.4,52,0.00,,---,0.00,VWS V14.01,2013-04-14 17:47:00,
2013-04-14 13:53:00,48.4,29.6,29.50,SSW,202,1.3,4.0,48,0.00,,---,0.00,VWS V14.01,2013-04-14 17:53:00,
2013-04-14 13:58:00,50.0,32.1,29.50,SSW,202,2.7,2.7,50,0.00,,---,0.00,VWS V14.01,2013-04-14 17:58:00,
2013-04-14 14:03:00,51.8,34.3,29.50,ENE,68,3.8,3.8,51,0.00,,---,0.00,VWS V14.01,2013-04-14 18:03:00,
2013-04-14 14:08:00,51.4,33.4,29.50,ENE,68,3.1,3.1,50,0.00,,---,0.00,VWS V14.01,2013-04-14 18:08:00,
2013-04-14 14:14:00,50.2,31.3,29.50,ESE,112,4.7,4.9,48,0.00,,---,0.00,VWS V14.01,2013-04-14 18:14:00,
2013-04-14 14:19:00,49.1,29.8,29.50,NW,315,6.0,9.8,47,0.00,,---,0.00,VWS V14.01,2013-04-14 18:19:00,
2013-04-14 14:25:00,48.7,31.4,29.50,South,180,2.2,2.2,51,0.00,,---,0.00,VWS V14.01,2013-04-14 18:25:00,
2013-04-14 14:31:00,48.6,31.3,29.53,West,270,2.5,2.5,51,0.00,,---,0.00,VWS V14.01,2013-04-14 18:31:00,
2013-04-14 14:36:00,48.2,31.9,29.53,WNW,292,2.9,3.1,53,0.00,,---,0.00,VWS V14.01,2013-04-14 18:36:00,
2013-04-14 14:41:00,50.0,34.9,29.53,NNE,22,0.0,1.6,56,0.00,,---,0.00,VWS V14.01,2013-04-14 18:41:00,
2013-04-14 14:46:00,51.8,36.2,29.50,ENE,68,1.6,2.9,55,0.00,,---,0.00,VWS V14.01,2013-04-14 18:46:00,
2013-04-14 14:52:00,53.1,36.4,29.50,NNE,22,2.7,2.7,53,0.00,,---,0.00,VWS V14.01,2013-04-14 18:52:00,
2013-04-14 14:57:00,54.0,34.7,29.50,NNE,22,0.9,2.2,48,0.00,,---,0.00,VWS V14.01,2013-04-14 18:57:00,
2013-04-14 15:03:00,54.3,34.0,29.50,NE,45,3.4,3.4,46,0.00,,---,0.00,VWS V14.01,2013-04-14 19:03:00,
2013-04-14 15:09:00,53.6,30.5,29.50,WNW,292,1.1,3.1,41,0.00,,---,0.00,VWS V14.01,2013-04-14 19:09:00,
2013-04-14 15:15:00,53.2,30.2,29.50,ENE,68,1.6,3.8,41,0.00,,---,0.00,VWS V14.01,2013-04-14 19:15:00,
2013-04-14 15:21:00,52.0,27.2,29.50,SSE,158,5.4,5.6,38,0.00,,---,0.00,VWS V14.01,2013-04-14 19:21:00,
2013-04-14 15:28:00,51.1,27.0,29.50,South,180,1.3,2.5,39,0.00,,---,0.00,VWS V14.01,2013-04-14 19:28:00,
2013-04-14 15:34:00,50.5,27.1,29.50,East,90,0.9,4.7,40,0.00,,---,0.00,VWS V14.01,2013-04-14 19:34:00,
2013-04-14 15:39:00,50.0,26.6,29.50,NNE,22,2.0,3.6,40,0.00,,---,0.00,VWS V14.01,2013-04-14 19:39:00,
2013-04-14 15:44:00,50.0,27.2,29.50,South,180,1.3,2.0,41,0.00,,---,0.00,VWS V14.01,2013-04-14 19:44:00,
2013-04-14 15:50:00,49.8,26.5,29.50,WNW,292,2.0,2.0,40,0.00,,---,0.00,VWS V14.01,2013-04-14 19:50:00,
2013-04-14 15:56:00,50.0,26.0,29.50,East,90,2.9,5.6,39,0.00,,---,0.00,VWS V14.01,2013-04-14 19:56:00,
2013-04-14 16:02:00,50.5,26.5,29.53,South,180,3.1,3.1,39,0.00,,---,0.00,VWS V14.01,2013-04-14 20:02:00,
2013-04-14 16:08:00,50.9,25.6,29.53,WSW,248,4.3,4.3,37,0.00,,---,0.00,VWS V14.01,2013-04-14 20:08:00,
2013-04-14 16:13:00,51.1,25.7,29.53,WSW,248,8.1,8.1,37,0.00,,---,0.00,VWS V14.01,2013-04-14 20:13:00,
2013-04-14 16:19:00,52.0,25.9,29.53,West,270,5.4,6.0,36,0.00,,---,0.00,VWS V14.01,2013-04-14 20:19:00,
2013-04-14 16:24:00,54.0,27.6,29.53,WSW,248,5.6,5.6,36,0.00,,---,0.00,VWS V14.01,2013-04-14 20:24:00,
2013-04-14 16:30:00,52.0,25.9,29.53,NNW,338,3.1,5.8,36,0.00,,---,0.00,VWS V14.01,2013-04-14 20:30:00,
2013-04-14 16:35:00,51.3,25.9,29.53,SW,225,8.5,8.5,37,0.00,,---,0.00,VWS V14.01,2013-04-14 20:35:00,
2013-04-14 16:41:00,52.9,27.3,29.53,WNW,292,1.6,2.7,37,0.00,,---,0.00,VWS V14.01,2013-04-14 20:41:00,
2013-04-14 16:46:00,53.4,27.8,29.53,SE,135,1.6,6.3,37,0.00,,---,0.00,VWS V14.01,2013-04-14 20:46:00,
2013-04-14 16:51:00,52.0,25.9,29.53,East,90,3.1,5.8,36,0.00,,---,0.00,VWS V14.01,2013-04-14 20:51:00,
2013-04-14 16:56:00,51.3,25.9,29.53,WNW,292,2.5,3.6,37,0.00,,---,0.00,VWS V14.01,2013-04-14 20:56:00,
2013-04-14 17:01:00,51.1,25.7,29.56,South,180,2.5,2.7,37,0.00,,---,0.00,VWS V14.01,2013-04-14 21:01:00,
2013-04-14 17:06:00,51.4,26.0,29.56,WNW,292,1.3,2.5,37,0.00,,---,0.00,VWS V14.01,2013-04-14 21:06:00,
2013-04-14 17:12:00,50.5,25.2,29.56,East,90,2.9,3.6,37,0.00,,---,0.00,VWS V14.01,2013-04-14 21:12:00,
2013-04-14 17:17:00,50.0,24.8,29.56,SW,225,10.3,10.3,37,0.00,,---,0.00,VWS V14.01,2013-04-14 21:17:00,
2013-04-14 17:23:00,48.7,23.6,29.56,NNW,338,2.2,5.8,37,0.00,,---,0.00,VWS V14.01,2013-04-14 21:23:00,
2013-04-14 17:28:00,48.4,24.0,29.56,ENE,68,2.5,3.1,38,0.00,,---,0.00,VWS V14.01,2013-04-14 21:28:00,
2013-04-14 17:33:00,48.0,24.3,29.56,West,270,2.2,2.5,39,0.00,,---,0.00,VWS V14.01,2013-04-14 21:33:00,
2013-04-14 17:39:00,51.3,27.2,29.56,North,0,2.0,2.7,39,0.00,,---,0.00,VWS V14.01,2013-04-14 21:39:00,
2013-04-14 17:44:00,54.3,29.3,29.59,South,180,3.1,3.6,38,0.00,,---,0.00,VWS V14.01,2013-04-14 21:44:00,
2013-04-14 17:49:00,51.1,25.7,29.59,NNW,338,0.9,2.2,37,0.00,,---,0.00,VWS V14.01,2013-04-14 21:49:00,
2013-04-14 17:54:00,49.8,25.2,29.59,SSW,202,2.5,3.8,38,0.00,,---,0.00,VWS V14.01,2013-04-14 21:54:00,
2013-04-14 17:59:00,48.7,24.3,29.59,WNW,292,1.6,1.6,38,0.00,,---,0.00,VWS V14.01,2013-04-14 21:59:00,
2013-04-14 18:04:00,48.2,23.8,29.59,SW,225,1.6,1.6,38,0.00,,---,0.00,VWS V14.01,2013-04-14 22:04:00,
2013-04-14 18:09:00,47.7,23.9,29.59,West,270,1.6,1.6,39,0.00,,---,0.00,VWS V14.01,2013-04-14 22:09:00,
2013-04-14 18:15:00,46.9,23.3,29.59,East,90,2.5,3.4,39,0.00,,---,0.00,VWS V14.01,2013-04-14 22:15:00,
2013-04-14 18:20:00,46.6,23.6,29.59,SSW,202,0.0,2.2,40,0.00,,---,0.00,VWS V14.01,2013-04-14 22:20:00,
2013-04-14 18:26:00,46.0,23.1,29.59,NNW,338,1.6,6.3,40,0.00,,---,0.00,VWS V14.01,2013-04-14 22:26:00,
2013-04-14 18:31:00,45.9,22.9,29.62,WSW,248,4.0,4.3,40,0.00,,---,0.00,VWS V14.01,2013-04-14 22:31:00,
2013-04-14 18:36:00,45.5,22.6,29.62,West,270,2.5,2.5,40,0.00,,---,0.00,VWS V14.01,2013-04-14 22:36:00,
2013-04-14 18:41:00,45.3,23.0,29.62,SSW,202,2.5,2.5,41,0.00,,---,0.00,VWS V14.01,2013-04-14 22:41:00,
2013-04-14 18:47:00,45.3,22.4,29.62,WSW,248,2.7,4.3,40,0.00,,---,0.00,VWS V14.01,2013-04-14 22:47:00,
2013-04-14 18:52:00,45.0,22.7,29.62,SW,225,0.0,0.0,41,0.00,,---,0.00,VWS V14.01,2013-04-14 22:52:00,
2013-04-14 18:58:00,44.8,22.5,29.62,WSW,248,2.5,2.5,41,0.00,,---,0.00,VWS V14.01,2013-04-14 22:58:00,
2013-04-14 19:04:00,44.8,22.0,29.62,WSW,248,2.0,4.5,40,0.00,,---,0.00,VWS V14.01,2013-04-14 23:04:00,
2013-04-14 19:09:00,44.6,21.8,29.62,South,180,3.4,3.8,40,0.00,,---,0.00,VWS V14.01,2013-04-14 23:09:00,
2013-04-14 19:14:00,44.2,21.5,29.62,WNW,292,4.0,4.0,40,0.00,,---,0.00,VWS V14.01,2013-04-14 23:14:00,
2013-04-14 19:19:00,44.1,21.9,29.62,SW,225,4.0,4.0,41,0.00,,---,0.00,VWS V14.01,2013-04-14 23:19:00,
2013-04-14 19:25:00,43.5,21.4,29.62,SSW,202,2.2,2.2,41,0.00,,---,0.00,VWS V14.01,2013-04-14 23:25:00,
2013-04-14 19:30:00,43.0,20.9,29.65,SSW,202,2.0,2.2,41,0.00,,---,0.00,VWS V14.01,2013-04-14 23:30:00,
2013-04-14 19:35:00,42.8,21.3,29.65,SSW,202,2.5,2.5,42,0.00,,---,0.00,VWS V14.01,2013-04-14 23:35:00,
2013-04-14 19:40:00,42.4,21.5,29.65,SSW,202,1.3,2.0,43,0.00,,---,0.00,VWS V14.01,2013-04-14 23:40:00,
2013-04-14 19:46:00,42.4,21.5,29.65,North,0,4.9,6.3,43,0.00,,---,0.00,VWS V14.01,2013-04-14 23:46:00,
2013-04-14 19:51:00,42.3,21.9,29.65,WSW,248,2.7,2.9,44,0.00,,---,0.00,VWS V14.01,2013-04-14 23:51:00,
2013-04-14 19:57:00,42.3,21.9,29.65,NE,45,1.3,2.7,44,0.00,,---,0.00,VWS V14.01,2013-04-14 23:57:00,
2013-04-14 20:03:00,42.1,22.3,29.65,NNE,22,0.0,0.9,45,0.00,,---,0.00,VWS V14.01,2013-04-15 00:03:00,
2013-04-14 20:08:00,41.7,22.0,29.65,NE,45,1.6,2.5,45,0.00,,---,0.00,VWS V14.01,2013-04-15 00:08:00,
2013-04-14 20:15:00,41.5,22.8,29.68,SW,225,1.3,2.7,47,0.00,,---,0.00,VWS V14.01,2013-04-15 00:15:00,
2013-04-14 20:21:00,41.2,22.5,29.68,West,270,2.5,2.5,47,0.00,,---,0.00,VWS V14.01,2013-04-15 00:21:00,
2013-04-14 20:26:00,40.6,22.5,29.68,West,270,3.1,3.1,48,0.00,,---,0.00,VWS V14.01,2013-04-15 00:26:00,
2013-04-14 20:32:00,41.0,22.8,29.68,SE,135,2.9,3.1,48,0.00,,---,0.00,VWS V14.01,2013-04-15 00:32:00,
2013-04-14 20:37:00,41.2,23.0,29.68,NW,315,0.0,1.6,48,0.00,,---,0.00,VWS V14.01,2013-04-15 00:37:00,
2013-04-14 20:42:00,41.0,22.8,29.68,ENE,68,1.6,1.6,48,0.00,,---,0.00,VWS V14.01,2013-04-15 00:42:00,
2013-04-14 20:48:00,40.5,22.8,29.68,ENE,68,0.0,0.0,49,0.00,,---,0.00,VWS V14.01,2013-04-15 00:48:00,
2013-04-14 20:54:00,39.9,22.3,29.68,SSE,158,0.0,0.0,49,0.00,,---,0.00,VWS V14.01,2013-04-15 00:54:00,
2013-04-14 21:00:00,39.2,21.7,29.71,South,180,0.0,1.1,49,0.00,,---,0.00,VWS V14.01,2013-04-15 01:00:00,
2013-04-14 21:05:00,38.7,22.1,29.71,South,180,0.9,2.0,51,0.00,,---,0.00,VWS V14.01,2013-04-15 01:05:00,
2013-04-14 21:10:00,38.3,21.3,29.71,South,180,1.6,1.6,50,0.00,,---,0.00,VWS V14.01,2013-04-15 01:10:00,
2013-04-14 21:16:00,37.6,21.1,29.71,South,180,0.0,0.0,51,0.00,,---,0.00,VWS V14.01,2013-04-15 01:16:00,
2013-04-14 21:21:00,36.9,20.9,29.71,SW,225,0.0,0.0,52,0.00,,---,0.00,VWS V14.01,2013-04-15 01:21:00,
2013-04-14 21:26:00,36.9,21.3,29.71,East,90,0.9,1.3,53,0.00,,---,0.00,VWS V14.01,2013-04-15 01:26:00,
2013-04-14 21:31:00,36.3,20.8,29.74,East,90,0.0,0.0,53,0.00,,---,0.00,VWS V14.01,2013-04-15 01:31:00,
2013-04-14 21:37:00,36.3,20.8,29.74,West,270,1.6,2.5,53,0.00,,---,0.00,VWS V14.01,2013-04-15 01:37:00,
2013-04-14 21:42:00,35.8,21.2,29.74,WSW,248,0.0,1.3,55,0.00,,---,0.00,VWS V14.01,2013-04-15 01:42:00,
2013-04-14 21:48:00,35.4,20.9,29.74,WSW,248,0.0,0.0,55,0.00,,---,0.00,VWS V14.01,2013-04-15 01:48:00,
2013-04-14 21:54:00,35.2,21.1,29.74,WSW,248,1.3,1.6,56,0.00,,---,0.00,VWS V14.01,2013-04-15 01:54:00,
2013-04-14 21:59:00,34.9,20.8,29.74,WSW,248,1.6,2.0,56,0.00,,---,0.00,VWS V14.01,2013-04-15 01:59:00,
2013-04-14 22:04:00,34.5,20.5,29.74,WSW,248,2.5,2.5,56,0.00,,---,0.00,VWS V14.01,2013-04-15 02:04:00,
2013-04-14 22:09:00,34.3,20.7,29.74,SW,225,1.1,1.6,57,0.00,,---,0.00,VWS V14.01,2013-04-15 02:09:00,
2013-04-14 22:15:00,34.3,21.1,29.74,SW,225,0.0,1.3,58,0.00,,---,0.00,VWS V14.01,2013-04-15 02:15:00,
2013-04-14 22:21:00,34.2,20.9,29.74,SW,225,2.5,2.5,58,0.00,,---,0.00,VWS V14.01,2013-04-15 02:21:00,
2013-04-14 22:26:00,34.2,21.3,29.74,SW,225,2.5,2.9,59,0.00,,---,0.00,VWS V14.01,2013-04-15 02:26:00,
2013-04-14 22:31:00,34.0,21.6,29.74,SW,225,0.0,2.0,60,0.00,,---,0.00,VWS V14.01,2013-04-15 02:31:00,
2013-04-14 22:37:00,34.0,21.6,29.74,SW,225,0.0,0.0,60,0.00,,---,0.00,VWS V14.01,2013-04-15 02:37:00,
2013-04-14 22:43:00,33.8,21.8,29.74,WSW,248,3.4,3.4,61,0.00,,---,0.00,VWS V14.01,2013-04-15 02:43:00,
2013-04-14 22:48:00,33.8,22.2,29.74,SSW,202,2.0,2.0,62,0.00,,---,0.00,VWS V14.01,2013-04-15 02:48:00,
2013-04-14 22:53:00,33.6,22.4,29.74,SSW,202,0.0,0.0,63,0.00,,---,0.00,VWS V14.01,2013-04-15 02:53:00,
2013-04-14 22:58:00,33.3,21.7,29.74,WSW,248,1.3,1.3,62,0.00,,---,0.00,VWS V14.01,2013-04-15 02:58:00,
2013-04-14 23:03:00,34.2,24.0,29.74,West,270,2.5,2.7,66,0.00,,---,0.00,VWS V14.01,2013-04-15 03:03:00,
2013-04-14 23:08:00,34.2,23.6,29.74,SW,225,1.1,1.3,65,0.00,,---,0.00,VWS V14.01,2013-04-15 03:08:00,
2013-04-14 23:13:00,34.3,23.4,29.74,SW,225,1.3,1.3,64,0.00,,---,0.00,VWS V14.01,2013-04-15 03:13:00,
2013-04-14 23:18:00,34.3,23.4,29.74,SW,225,1.3,2.2,64,0.00,,---,0.00,VWS V14.01,2013-04-15 03:18:00,
2013-04-14 23:23:00,34.0,23.5,29.74,SW,225,2.2,2.5,65,0.00,,---,0.00,VWS V14.01,2013-04-15 03:23:00,
2013-04-14 23:29:00,32.9,22.1,29.74,SW,225,1.6,1.6,64,0.00,,---,0.00,VWS V14.01,2013-04-15 03:29:00,
2013-04-14 23:34:00,32.7,22.6,29.74,West,270,2.5,3.4,66,0.00,,---,0.00,VWS V14.01,2013-04-15 03:34:00,
2013-04-14 23:40:00,32.7,23.0,29.74,SSW,202,1.6,2.0,67,0.00,,---,0.00,VWS V14.01,2013-04-15 03:40:00,
2013-04-14 23:45:00,32.5,22.5,29.74,WSW,248,1.3,3.1,66,0.00,,---,0.00,VWS V14.01,2013-04-15 03:45:00,
2013-04-14 23:51:00,32.2,22.8,29.74,WSW,248,1.6,2.5,68,0.00,,---,0.00,VWS V14.01,2013-04-15 03:51:00,
2013-04-14 23:56:00,32.0,22.6,29.74,SSW,202,2.5,2.7,68,0.00,,---,0.00,VWS V14.01,2013-04-15 03:56:00,